Vorticity
4 8 6 7 7 5 4 5 3 3 4 4 4 3 3 4 6 13 8 7 9 11
5 5 5 7 7 7 7 5 5 3 2 4 3 4 5 6 5 5 10 9 8 11
4 5 4 6 5 8 10 5 7 3 2 3 5 4 5 7 7 5 7 11 12 9
4 5 2 4 6 6 9 4 4 3 2 2 3 7 6 7 9 6 6 9 15 10
5 6 3 3 5 7 6 5 4 3 2 3 4 7 7 6 12 7 8 7 12 11
5 7 4 4 4 9 6 5 3 2 3 4 6 8 9 8 11 8 7 7 10 13
5 6 5 5 5 5 7 7 5 3 4 4 8 11 13 10 9 7 6 7 13 10
7 7 6 4 4 5 7 5 4 4 3 6 8 11 10 9 14 9 7 8 14 11
8 7 6 4 5 6 8 7 5 4 3 5 7 8 8 9 9 8 10 7 12 13
11 11 12 8 7 5 10 11 6 5 5 6 6 6 10 10 10 12 9 9 14 12
8 9 12 15 11 9 12 11 5 6 5 5 4 8 10 11 13 11 7 9 8 6
9 8 8 9 13 10 9 9 10 8 6 5 8 9 10 14 17 6 6 7 8 4
11 8 11 10 9 9 8 7 6 7 6 8 8 11 14 15 17 7 6 3 4 8
13 12 9 13 9 9 9 9 7 9 9 8 9 7 11 14 15 13 6 7 7 7
Height
5933 5937 5939 5942 5945 5947 5950 5953 5955 5958 5959 5959 5959 5959 5959 5960 5960 5961 5961 5962 5962 5962
5930 5935 5937 5940 5943 5945 5949 5952 5955 5958 5959 5959 5959 5960 5959 5960 5961 5962 5962 5963 5963 5963
5926 5931 5933 5937 5941 5943 5946 5950 5953 5957 5959 5959 5959 5960 5959 5959 5960 5961 5963 5963 5964 5964
5923 5927 5930 5934 5937 5940 5944 5948 5951 5954 5957 5958 5958 5959 5959 5959 5959 5960 5962 5963 5964 5965
5918 5922 5927 5930 5934 5937 5941 5944 5948 5951 5954 5956 5957 5957 5957 5958 5958 5959 5960 5962 5963 5964
5914 5918 5924 5928 5930 5933 5936 5940 5944 5947 5950 5952 5953 5954 5955 5955 5956 5956 5958 5959 5961 5962
5911 5916 5920 5923 5927 5930 5933 5936 5939 5942 5945 5948 5950 5951 5951 5952 5953 5954 5954 5956 5958 5959
5906 5910 5914 5918 5922 5926 5929 5933 5936 5939 5942 5945 5947 5947 5947 5948 5950 5951 5951 5953 5955 5957
5898 5903 5908 5913 5917 5921 5925 5929 5932 5936 5938 5941 5943 5944 5945 5945 5946 5948 5949 5951 5952 5955
5893 5897 5902 5906 5910 5915 5920 5923 5928 5931 5934 5937 5939 5941 5942 5942 5944 5945 5947 5949 5951 5953
5888 5892 5896 5900 5906 5910 5914 5919 5922 5925 5929 5932 5935 5937 5938 5939 5940 5942 5944 5946 5949 5952
5884 5887 5891 5896 5900 5904 5908 5913 5918 5921 5924 5928 5931 5933 5934 5936 5937 5940 5942 5944 5947 5949
5877 5881 5886 5890 5894 5898 5902 5907 5911 5915 5920 5923 5926 5929 5930 5932 5934 5937 5939 5941 5943 5946
5869 5875 5880 5883 5886 5892 5897 5902 5906 5910 5914 5918 5920 5923 5925 5928 5931 5933 5935 5937 5939 5941